TVF91VW LFPO-EIDW

Flight info

Callsign TVF91VW
Flight time 1h 19m
Altitude 36000
Route ATREX DCT VESAN DCT RATUK DCT SOVAT L613 SANDY L722 ICTAM T421 DIDZA DCT CESQA DCT BIBPE DCT OKTAD DCT AZCAL DCT MEDOG DCT LANON L18 LIPGO
Aircraft B738/M-SDE2E3FGHIRWXY/LB1

Departure

Time 2026-05-05 04:31
Airport Paris-Orly Airport (LFPO)

Arrival

Time 2026-05-05 05:51
Airport Dublin Airport (EIDW)
Time Latitude Longitude Altitude Speed Heading
2026-05-05 04:10 48.72587 2.36249 296 ft 0 kts 348°
2026-05-05 04:26 48.72585 2.36250 294 ft 6 kts 348°
2026-05-05 04:26 48.72545 2.36262 297 ft 6 kts 348°
2026-05-05 04:26 48.72520 2.36304 298 ft 6 kts 263°
2026-05-05 04:27 48.72520 2.36309 298 ft 0 kts 257°
2026-05-05 04:28 48.72507 2.36252 294 ft 13 kts 234°
2026-05-05 04:28 48.72412 2.36167 296 ft 18 kts 244°
2026-05-05 04:28 48.72378 2.35990 294 ft 17 kts 254°
2026-05-05 04:28 48.72347 2.35822 296 ft 16 kts 254°
2026-05-05 04:29 48.72318 2.35671 294 ft 14 kts 246°
2026-05-05 04:29 48.72237 2.35601 296 ft 14 kts 175°
2026-05-05 04:29 48.72145 2.35631 294 ft 13 kts 165°
2026-05-05 04:29 48.72064 2.35687 297 ft 13 kts 141°
2026-05-05 04:30 48.72011 2.35792 296 ft 12 kts 122°
2026-05-05 04:30 48.71971 2.35907 298 ft 12 kts 106°
2026-05-05 04:30 48.72014 2.36248 300 ft 72 kts 73°
2026-05-05 04:30 48.72226 2.37386 302 ft 149 kts 72°
2026-05-05 04:31 48.72528 2.39102 756 ft 186 kts 74°
2026-05-05 04:31 48.72867 2.41016 1862 ft 183 kts 74°
2026-05-05 04:31 48.73202 2.42793 3193 ft 168 kts 75°
2026-05-05 04:31 48.73520 2.44492 4066 ft 171 kts 75°
2026-05-05 04:32 48.73872 2.46388 4421 ft 202 kts 75°
2026-05-05 04:32 48.74130 2.48611 4652 ft 227 kts 86°
2026-05-05 04:32 48.74212 2.51089 5022 ft 242 kts 88°
2026-05-05 04:32 48.74281 2.53663 5599 ft 247 kts 88°
2026-05-05 04:33 48.74230 2.56231 6209 ft 249 kts 104°
2026-05-05 04:33 48.73426 2.58525 6812 ft 250 kts 134°
2026-05-05 04:33 48.71967 2.59948 7352 ft 258 kts 161°
2026-05-05 04:33 48.70130 2.60146 7733 ft 275 kts 191°
2026-05-05 04:34 48.68378 2.58971 8545 ft 279 kts 218°
2026-05-05 04:34 48.67186 2.56665 9435 ft 284 kts 248°
2026-05-05 04:34 48.66812 2.53721 10219 ft 290 kts 266°
2026-05-05 04:34 48.66760 2.50551 10495 ft 315 kts 268°
2026-05-05 04:35 48.66718 2.47109 10718 ft 338 kts 267°
2026-05-05 04:35 48.66629 2.43489 11312 ft 348 kts 266°
2026-05-05 04:35 48.66410 2.39837 12103 ft 350 kts 256°
2026-05-05 04:35 48.65569 2.36379 12946 ft 351 kts 246°
2026-05-05 04:36 48.64790 2.32871 13718 ft 357 kts 261°
2026-05-05 04:36 48.64903 2.29113 14419 ft 363 kts 282°
2026-05-05 04:36 48.65871 2.25567 15123 ft 368 kts 296°
2026-05-05 04:36 48.67116 2.22153 15807 ft 373 kts 298°
2026-05-05 04:37 48.68410 2.18726 16482 ft 377 kts 298°
2026-05-05 04:37 48.69716 2.15262 17165 ft 381 kts 298°
2026-05-05 04:37 48.71023 2.11756 17867 ft 384 kts 297°
2026-05-05 04:37 48.72331 2.08206 18496 ft 388 kts 297°
2026-05-05 04:38 48.73642 2.04616 19057 ft 392 kts 297°
2026-05-05 04:38 48.74963 2.00981 19606 ft 396 kts 296°
2026-05-05 04:38 48.76298 1.97299 20147 ft 400 kts 296°
2026-05-05 04:38 48.77642 1.93585 20683 ft 405 kts 296°
2026-05-05 04:39 48.79003 1.89823 21195 ft 409 kts 296°
2026-05-05 04:39 48.80508 1.86131 21669 ft 417 kts 308°
2026-05-05 04:39 48.82724 1.83235 22161 ft 427 kts 328°
2026-05-05 04:39 48.85496 1.81591 22654 ft 434 kts 349°
2026-05-05 04:40 48.88516 1.81409 23130 ft 438 kts
2026-05-05 04:40 48.91445 1.82675 23567 ft 440 kts 22°
2026-05-05 04:40 48.94292 1.84438 23960 ft 444 kts 24°
2026-05-05 04:40 48.97152 1.86286 24340 ft 449 kts 24°
2026-05-05 04:41 49.00035 1.88148 24721 ft 452 kts 24°
2026-05-05 04:41 49.02950 1.90002 25124 ft 455 kts 23°
2026-05-05 04:41 49.05854 1.91821 25496 ft 459 kts 23°
2026-05-05 04:41 49.08823 1.93662 25866 ft 463 kts 23°
2026-05-05 04:42 49.11594 1.95374 26205 ft 466 kts 22°
2026-05-05 04:42 49.14612 1.97238 26564 ft 469 kts 22°
2026-05-05 04:42 49.17651 1.99118 26903 ft 473 kts 22°
2026-05-05 04:42 49.20708 2.01015 27259 ft 476 kts 22°
2026-05-05 04:43 49.23791 2.02931 27606 ft 480 kts 22°
2026-05-05 04:43 49.26892 2.04860 27935 ft 483 kts 22°
2026-05-05 04:43 49.30019 2.06807 28280 ft 486 kts 22°
2026-05-05 04:43 49.33161 2.08766 28596 ft 490 kts 22°
2026-05-05 04:44 49.36329 2.10745 28907 ft 493 kts 22°
2026-05-05 04:44 49.39508 2.12732 29222 ft 495 kts 22°
2026-05-05 04:44 49.42713 2.14738 29511 ft 499 kts 22°
2026-05-05 04:44 49.45938 2.16751 29799 ft 502 kts 21°
2026-05-05 04:45 49.49184 2.18752 30074 ft 504 kts 21°
2026-05-05 04:45 49.52446 2.20754 30326 ft 506 kts 21°
2026-05-05 04:45 49.55720 2.22766 30649 ft 506 kts 21°
2026-05-05 04:45 49.58988 2.24780 31051 ft 505 kts 21°
2026-05-05 04:46 49.62242 2.26791 31468 ft 503 kts 21°
2026-05-05 04:46 49.65484 2.28800 31833 ft 502 kts 21°
2026-05-05 04:46 49.68724 2.30812 32156 ft 502 kts 20°
2026-05-05 04:46 49.71968 2.32829 32489 ft 502 kts 20°
2026-05-05 04:47 49.75219 2.34756 32849 ft 500 kts 13°
2026-05-05 04:47 49.78623 2.35547 33161 ft 492 kts 356°
2026-05-05 04:47 49.81971 2.35007 33527 ft 480 kts 340°
2026-05-05 04:47 49.85073 2.33420 33902 ft 472 kts 334°
2026-05-05 04:48 49.88177 2.31570 34197 ft 471 kts 333°
2026-05-05 04:48 49.91231 2.29704 34418 ft 472 kts 333°
2026-05-05 04:48 49.94283 2.27849 34671 ft 472 kts 333°
2026-05-05 04:48 49.97344 2.26016 34951 ft 471 kts 334°
2026-05-05 04:49 50.00365 2.24233 35229 ft 470 kts 334°
2026-05-05 04:49 50.03424 2.22443 35484 ft 470 kts 335°
2026-05-05 04:49 50.06488 2.20656 35716 ft 470 kts 335°
2026-05-05 04:49 50.09552 2.18868 35969 ft 470 kts 335°
2026-05-05 04:50 50.12609 2.17083 36210 ft 469 kts 335°
2026-05-05 04:50 50.15663 2.15295 36454 ft 469 kts 335°
2026-05-05 04:50 50.18715 2.13505 36674 ft 469 kts 335°
2026-05-05 04:50 50.21766 2.11711 36900 ft 469 kts 336°
2026-05-05 04:51 50.24815 2.09916 37127 ft 468 kts 336°
2026-05-05 04:51 50.27863 2.08120 37357 ft 468 kts 336°
2026-05-05 04:51 50.30911 2.06321 37565 ft 468 kts 336°
2026-05-05 04:51 50.33937 2.04532 37772 ft 468 kts 335°
2026-05-05 04:52 50.36894 2.02386 37956 ft 464 kts 327°
2026-05-05 04:52 50.42013 1.96335 37976 ft 461 kts 315°
2026-05-05 04:53 50.46791 1.89649 37976 ft 459 kts 315°
2026-05-05 04:53 50.51576 1.83013 37959 ft 458 kts 315°
2026-05-05 04:54 50.56368 1.76438 37969 ft 457 kts 315°
2026-05-05 04:54 50.61156 1.69865 37969 ft 456 kts 315°
2026-05-05 04:55 50.65932 1.63286 37970 ft 456 kts 315°
2026-05-05 04:55 50.70696 1.56700 37967 ft 456 kts 315°
2026-05-05 04:56 50.75460 1.50094 37967 ft 456 kts 315°
2026-05-05 04:56 50.80199 1.43510 37969 ft 457 kts 315°
2026-05-05 04:57 50.84973 1.36866 37980 ft 458 kts 315°
2026-05-05 04:57 50.89754 1.30193 37985 ft 458 kts 315°
2026-05-05 04:58 50.94538 1.23495 37989 ft 459 kts 315°
2026-05-05 04:58 50.99326 1.16772 37996 ft 460 kts 315°
2026-05-05 04:59 51.03325 1.11101 37992 ft 459 kts 311°
2026-05-05 04:59 51.07067 1.03123 37997 ft 451 kts 295°
2026-05-05 05:00 51.09345 0.93919 38002 ft 447 kts 285°
2026-05-05 05:00 51.11308 0.84533 37990 ft 447 kts 285°
2026-05-05 05:01 51.13299 0.75142 37991 ft 448 kts 286°
2026-05-05 05:01 51.15316 0.65767 38026 ft 448 kts 286°
2026-05-05 05:02 51.17334 0.56387 38049 ft 447 kts 286°
2026-05-05 05:02 51.19342 0.47007 38053 ft 447 kts 286°
2026-05-05 05:03 51.21341 0.37622 38051 ft 447 kts 286°
2026-05-05 05:03 51.23333 0.28225 38043 ft 447 kts 286°
2026-05-05 05:04 51.25310 0.18833 37996 ft 447 kts 286°
2026-05-05 05:04 51.27004 0.10733 37993 ft 447 kts 286°
2026-05-05 05:05 51.28961 0.01334 38002 ft 446 kts 286°
2026-05-05 05:05 51.30824 -0.07649 37994 ft 447 kts 286°
2026-05-05 05:06 51.32770 -0.17076 37997 ft 447 kts 286°
2026-05-05 05:06 51.34708 -0.26509 37977 ft 447 kts 287°
2026-05-05 05:07 51.36639 -0.35952 37997 ft 447 kts 287°
2026-05-05 05:07 51.38570 -0.45435 37997 ft 448 kts 287°
2026-05-05 05:08 51.40495 -0.54942 37998 ft 450 kts 287°
2026-05-05 05:08 51.42421 -0.64496 37995 ft 451 kts 287°
2026-05-05 05:09 51.44343 -0.74076 37993 ft 452 kts 287°
2026-05-05 05:09 51.46260 -0.83682 37993 ft 453 kts 287°
2026-05-05 05:10 51.48175 -0.93323 37996 ft 454 kts 287°
2026-05-05 05:10 51.50085 -1.02986 37996 ft 455 kts 287°
2026-05-05 05:11 51.51989 -1.12662 37993 ft 455 kts 287°
2026-05-05 05:11 51.54519 -1.21890 38011 ft 455 kts 299°
2026-05-05 05:12 51.57718 -1.30685 37996 ft 455 kts 299°
2026-05-05 05:12 51.60810 -1.39565 37998 ft 455 kts 295°
2026-05-05 05:13 51.63129 -1.48987 38021 ft 453 kts 289°
2026-05-05 05:13 51.65279 -1.58524 38023 ft 453 kts 290°
2026-05-05 05:14 51.67515 -1.67991 38009 ft 452 kts 290°
2026-05-05 05:14 51.69771 -1.77449 38012 ft 452 kts 290°
2026-05-05 05:15 51.71939 -1.86945 38011 ft 451 kts 285°
2026-05-05 05:15 51.73451 -1.96752 38018 ft 450 kts 282°
2026-05-05 05:16 51.74829 -2.06605 38018 ft 451 kts 282°
2026-05-05 05:16 51.76248 -2.16454 38026 ft 451 kts 282°
2026-05-05 05:17 51.77693 -2.26309 38029 ft 451 kts 283°
2026-05-05 05:17 51.79135 -2.36172 38027 ft 451 kts 282°
2026-05-05 05:18 51.80569 -2.46051 38025 ft 452 kts 283°
2026-05-05 05:18 51.81993 -2.55942 38017 ft 452 kts 282°
2026-05-05 05:19 51.83353 -2.65868 38010 ft 452 kts 282°
2026-05-05 05:19 51.84686 -2.75806 38003 ft 453 kts 282°
2026-05-05 05:20 51.86019 -2.85760 38002 ft 453 kts 282°
2026-05-05 05:20 51.87340 -2.95658 38001 ft 453 kts 282°
2026-05-05 05:21 51.88663 -3.05629 38008 ft 453 kts 282°
2026-05-05 05:21 51.89979 -3.15609 38017 ft 454 kts 282°
2026-05-05 05:22 51.91278 -3.25602 38022 ft 454 kts 282°
2026-05-05 05:22 51.91924 -3.30650 37521 ft 461 kts 282°
2026-05-05 05:22 51.92570 -3.35721 37004 ft 458 kts 282°
2026-05-05 05:22 51.93212 -3.40759 36426 ft 457 kts 282°
2026-05-05 05:23 51.93852 -3.45803 35838 ft 456 kts 282°
2026-05-05 05:23 51.94653 -3.50759 35202 ft 456 kts 291°
2026-05-05 05:23 51.95979 -3.55425 34574 ft 455 kts 301°
2026-05-05 05:23 51.97732 -3.59683 33916 ft 454 kts 311°
2026-05-05 05:24 51.99861 -3.63431 33383 ft 449 kts 316°
2026-05-05 05:24 52.02036 -3.67042 32877 ft 445 kts 316°
2026-05-05 05:24 52.04199 -3.70605 32403 ft 441 kts 316°
2026-05-05 05:24 52.06337 -3.74148 31955 ft 437 kts 316°
2026-05-05 05:25 52.08444 -3.77672 31505 ft 433 kts 316°
2026-05-05 05:25 52.10527 -3.81185 31063 ft 430 kts 315°
2026-05-05 05:25 52.12592 -3.84687 30623 ft 426 kts 315°
2026-05-05 05:25 52.14631 -3.88161 30200 ft 423 kts 315°
2026-05-05 05:26 52.16659 -3.91621 29712 ft 420 kts 315°
2026-05-05 05:26 52.18664 -3.95049 29240 ft 416 kts 315°
2026-05-05 05:26 52.20646 -3.98442 28797 ft 411 kts 315°
2026-05-05 05:26 52.22612 -4.01813 28359 ft 407 kts 315°
2026-05-05 05:27 52.24556 -4.05147 27909 ft 404 kts 314°
2026-05-05 05:27 52.26478 -4.08450 27478 ft 400 kts 314°
2026-05-05 05:27 52.30279 -4.14993 26610 ft 394 kts 314°
2026-05-05 05:28 52.32154 -4.18227 26179 ft 391 kts 314°
2026-05-05 05:28 52.34020 -4.21449 25758 ft 388 kts 313°
2026-05-05 05:28 52.35868 -4.24647 25337 ft 386 kts 313°
2026-05-05 05:28 52.37705 -4.27829 24929 ft 383 kts 312°
2026-05-05 05:29 52.39530 -4.30991 24519 ft 381 kts 312°
2026-05-05 05:29 52.41344 -4.34142 24111 ft 379 kts 312°
2026-05-05 05:29 52.43144 -4.37270 23707 ft 377 kts 311°
2026-05-05 05:29 52.44931 -4.40385 23324 ft 372 kts 311°
2026-05-05 05:30 52.46673 -4.43426 22902 ft 369 kts 311°
2026-05-05 05:30 52.48420 -4.46483 22490 ft 366 kts 311°
2026-05-05 05:30 52.50153 -4.49518 22097 ft 362 kts 311°
2026-05-05 05:30 52.51868 -4.52527 21681 ft 360 kts 311°
2026-05-05 05:31 52.53571 -4.55517 21286 ft 357 kts 311°
2026-05-05 05:31 52.55259 -4.58485 20891 ft 354 kts 311°
2026-05-05 05:31 52.56937 -4.61436 20492 ft 352 kts 311°
2026-05-05 05:31 52.58599 -4.64366 20105 ft 350 kts 311°
2026-05-05 05:32 52.60252 -4.67283 19725 ft 347 kts 311°
2026-05-05 05:32 52.61894 -4.70183 19341 ft 345 kts 311°
2026-05-05 05:32 52.63528 -4.73071 18962 ft 343 kts 311°
2026-05-05 05:32 52.65150 -4.75942 18585 ft 342 kts 311°
2026-05-05 05:33 52.66763 -4.78799 18231 ft 339 kts 311°
2026-05-05 05:33 52.68361 -4.81628 17844 ft 336 kts 311°
2026-05-05 05:33 52.69944 -4.84433 17472 ft 333 kts 311°
2026-05-05 05:33 52.71516 -4.87223 17078 ft 331 kts 311°
2026-05-05 05:34 52.73073 -4.89989 16710 ft 328 kts 311°
2026-05-05 05:34 52.74620 -4.92737 16334 ft 326 kts 311°
2026-05-05 05:34 52.76155 -4.95471 15964 ft 324 kts 311°
2026-05-05 05:34 52.77680 -4.98188 15599 ft 321 kts 311°
2026-05-05 05:35 52.79192 -5.00886 15273 ft 318 kts 311°
2026-05-05 05:35 52.80688 -5.03559 14932 ft 316 kts 311°
2026-05-05 05:35 52.82173 -5.06216 14578 ft 314 kts 311°
2026-05-05 05:35 52.83654 -5.08869 14217 ft 313 kts 311°
2026-05-05 05:36 52.85124 -5.11505 13863 ft 312 kts 311°
2026-05-05 05:36 52.86592 -5.14140 13460 ft 310 kts 311°
2026-05-05 05:36 52.88051 -5.16762 13080 ft 309 kts 311°
2026-05-05 05:36 52.89500 -5.19370 12705 ft 307 kts 311°
2026-05-05 05:37 52.90938 -5.21959 12360 ft 304 kts 311°
2026-05-05 05:37 52.92367 -5.24534 12003 ft 302 kts 311°
2026-05-05 05:37 52.93784 -5.27092 11642 ft 300 kts 311°
2026-05-05 05:37 52.95195 -5.29640 11303 ft 299 kts 311°
2026-05-05 05:38 52.96594 -5.32169 10954 ft 297 kts 311°
2026-05-05 05:38 52.97984 -5.34686 10615 ft 295 kts 312°
2026-05-05 05:38 52.99354 -5.37167 10477 ft 286 kts 312°
2026-05-05 05:38 53.00677 -5.39569 10346 ft 278 kts 311°
2026-05-05 05:39 53.01961 -5.41903 10227 ft 269 kts 311°
2026-05-05 05:39 53.03186 -5.44134 10126 ft 261 kts 311°
2026-05-05 05:39 53.04392 -5.46330 9941 ft 256 kts 311°
2026-05-05 05:39 53.05584 -5.48505 9681 ft 253 kts 311°
2026-05-05 05:40 53.06793 -5.50618 9413 ft 251 kts 317°
2026-05-05 05:40 53.08131 -5.52462 9156 ft 249 kts 321°
2026-05-05 05:40 53.09498 -5.54210 8897 ft 247 kts 322°
2026-05-05 05:40 53.10862 -5.55940 8630 ft 246 kts 322°
2026-05-05 05:41 53.12214 -5.57664 8368 ft 244 kts 321°
2026-05-05 05:41 53.13554 -5.59385 8111 ft 242 kts 321°
2026-05-05 05:41 53.14884 -5.61102 7856 ft 242 kts 321°
2026-05-05 05:41 53.16225 -5.62842 7609 ft 247 kts 321°
2026-05-05 05:42 53.17598 -5.64630 7351 ft 254 kts 321°
2026-05-05 05:42 53.18986 -5.66441 7084 ft 253 kts 321°
2026-05-05 05:42 53.20370 -5.68251 6806 ft 252 kts 321°
2026-05-05 05:42 53.21746 -5.70054 6538 ft 251 kts 321°
2026-05-05 05:43 53.23115 -5.71850 6254 ft 250 kts 322°
2026-05-05 05:43 53.24471 -5.73632 6056 ft 243 kts 322°
2026-05-05 05:43 53.25756 -5.75321 5974 ft 227 kts 322°
2026-05-05 05:43 53.26957 -5.76902 5863 ft 212 kts 321°
2026-05-05 05:44 53.28077 -5.78376 5755 ft 198 kts 321°
2026-05-05 05:44 53.29118 -5.79749 5624 ft 184 kts 321°
2026-05-05 05:44 53.30092 -5.81035 5512 ft 174 kts 322°
2026-05-05 05:44 53.31031 -5.82273 5256 ft 171 kts 322°
2026-05-05 05:45 53.31646 -5.83087 5073 ft 170 kts 322°
2026-05-05 05:45 53.32878 -5.84714 4740 ft 166 kts 322°
2026-05-05 05:45 53.33469 -5.85496 4639 ft 162 kts 322°
2026-05-05 05:45 53.34348 -5.86658 4553 ft 162 kts 322°
2026-05-05 05:46 53.35247 -5.87847 4497 ft 167 kts 322°
2026-05-05 05:46 53.36178 -5.89079 4351 ft 174 kts 322°
2026-05-05 05:46 53.37122 -5.90330 4147 ft 172 kts 322°
2026-05-05 05:46 53.38051 -5.91563 3961 ft 168 kts 322°
2026-05-05 05:47 53.38959 -5.92766 3769 ft 165 kts 322°
2026-05-05 05:47 53.39793 -5.94068 3572 ft 166 kts 301°
2026-05-05 05:47 53.40109 -5.95913 3440 ft 164 kts 284°
2026-05-05 05:47 53.40354 -5.97796 3235 ft 166 kts 285°
2026-05-05 05:48 53.40594 -5.99705 3049 ft 169 kts 282°
2026-05-05 05:48 53.41130 -6.06954 2814 ft 169 kts 270°
2026-05-05 05:48 53.41160 -6.09038 2077 ft 186 kts 277°
2026-05-05 05:48 53.41271 -6.11090 1890 ft 173 kts 278°
2026-05-05 05:49 53.41376 -6.13033 1690 ft 164 kts 278°
2026-05-05 05:49 53.41478 -6.14919 1474 ft 161 kts 278°
2026-05-05 05:49 53.41584 -6.16887 1236 ft 156 kts 278°
2026-05-05 05:49 53.41677 -6.18627 1050 ft 146 kts 277°
2026-05-05 05:50 53.41768 -6.20302 808 ft 142 kts 277°
2026-05-05 05:50 53.41854 -6.21922 631 ft 141 kts 277°
2026-05-05 05:50 53.41942 -6.23560 426 ft 139 kts 278°
2026-05-05 05:50 53.42025 -6.25154 238 ft 136 kts 277°
2026-05-05 05:51 53.42100 -6.26417 211 ft 48 kts 279°
2026-05-05 05:51 53.42244 -6.26524 210 ft 22 kts 44°
2026-05-05 05:51 53.42265 -6.26287 215 ft 24 kts 95°
2026-05-05 05:51 53.42248 -6.25963 212 ft 29 kts 95°
2026-05-05 05:52 53.42229 -6.25641 210 ft 27 kts 95°
2026-05-05 05:52 53.42212 -6.25338 216 ft 26 kts 95°
2026-05-05 05:52 53.42222 -6.25019 219 ft 28 kts 62°
2026-05-05 05:52 53.42338 -6.24801 215 ft 23 kts 69°
2026-05-05 05:53 53.42300 -6.24622 214 ft 0 kts 135°